Location: Chmeli�t?
(49.8978°N, 15.0526°E)
Time: 07:12:20
(UTC+00:00)

Cosmos 2074 Rocket - Pass Details

Date: 05 October 2020
Orbit: 967 x 987 km, 82.9° (Epoch: 30 October)

Event Time Altitude Azimuth Distance (km) Brightness Sun altitude
Rises 20:50:21 0° 353° (N) 3,694 7.7 -38.9°
Reaches altitude 10° 20:53:00 10° 359° (N) 2,739 6.8 -39.2°
Enters shadow 20:55:29 24° 11° (NNE) 1,921 5.8 -39.4°
